SB KEPS @ AMSAT $ORB08353.N 2Line Orbital Elements 08353.AMSAT
HR AMSAT ORBITAL ELEMENTS FOR AMATEUR SATELLITES IN NASA FORMAT FROM WA5QGD FORT WORTH,TX December 18, 2008 Send Subscribe/unsubscribe to KEPS at http://www.amsat.org/mailman/listinfo/keps BID: ORB08353.N
DECODE 2-LINE ELSETS WITH THE FOLLOWING KEY: 1 AAAAAU 00 0 0 BBBBB.BBBBBBBB .CCCCCCCC 00000-0 00000-0 0 DDDZ 2 AAAAA EEE.EEEE FFF.FFFF GGGGGGG HHH.HHHH III.IIII JJ.JJJJJJJJKKKKKZ KEY: A-CATALOGNUM B-EPOCHTIME C-DECAY D-ELSETNUM E-INCLINATION F-RAAN G-ECCENTRICITY H-ARGPERIGEE I-MNANOM J-MNMOTION K-ORBITNUM Z-CHECKSUM
TO ALL RADIO AMATEURS BT
PO-63 1 29712U 07001D 08353.69443743 .00000577 00000-0 82275-4 0 682 2 29712 097.8538 048.2092 0014728 138.9896 221.2410 14.80378717104760 VO-52 1 28650U 05017B 08352.77845026 .00000012 00000-0 82302-5 0 1064 2 28650 097.7678 054.1278 0026054 262.1260 097.6974 14.81533193195780 AO-40 1 26609U 00072B 08353.40424836 -.00000112 00000-0 10000-3 0 1689 2 26609 008.3137 042.8842 7939827 156.3605 283.1390 01.25584091 37355 SO-33 1 25509U 98061B 08352.39297172 .00000246 00000-0 35080-4 0 3472 2 25509 031.4341 000.4495 0354862 189.0754 170.3273 14.28235462529829 FO-29 1 24278U 96046B 08352.82059279 .00000097 00000-0 13132-3 0 9289 2 24278 098.5773 244.9753 0351423 100.1832 263.9135 13.52940662609227 RS-15 1 23439U 94085A 08350.56563056 -.00000039 00000-0 10000-3 0 1662 2 23439 064.8150 201.7472 0145790 087.5030 274.2577 11.27553148575412 UO-11 1 14781U 84021B 08352.31081423 -.00000052 00000-0 29217-6 0 8383 2 14781 098.1328 028.8659 0008678 197.7138 162.3741 14.79683315330936 AO-10 1 14129U 83058B 08348.79580094 .00000085 00000-0 10000-3 0 5988 2 14129 026.0336 181.3286 5959267 181.2834 175.9706 02.05868889191806 AO-07 1 07530U 74089B 08353.56666007 -.00000027 00000-0 10000-3 0 3558 2 07530 101.4466 018.7533 0011792 261.7665 098.2071 12.53574899560088 CO-65 1 32785U 08021C 08352.84193047 -.00000015 00000-0 49625-5 0 2395 2 32785 097.9719 052.0785 0013832 260.2860 099.6769 14.81427416 34592 CP4 1 31132U 07012Q 08352.13779777 .00000222 00000-0 59080-4 0 4858 2 31132 098.0212 050.6914 0086835 119.7700 241.2176 14.55168336 88555 CP3 1 31128U 07012M 08352.09107728 -.00000046 00000-0 00000 0 0 5083 2 31128 098.0164 047.5713 0103752 128.7635 232.2883 14.52001381 88472 CO-56 1 28941U 06005C 08353.43013812 .00034176 27950-5 19334-3 0 6478 2 28941 098.1224 130.9424 0132639 086.9336 274.7191 15.67798852158793 AO-51 1 28375U 04025K 08352.47990606 .00000010 00000-0 15851-4 0 2690 2 28375 098.0581 006.6285 0084199 317.5243 041.9452 14.40627916234791 CO-57 1 27848U 03031J 08353.07753424 .00000008 00000-0 24008-4 0 4167 2 27848 098.7157 357.8603 0009645 314.4936 045.5431 14.20418395283512 CO-55 1 27844U 03031E 08351.92767180 .00000051 00000-0 43962-4 0 4662 2 27844 098.7152 357.6587 0009361 313.6066 046.4318 14.20612638283387 SO-50 1 27607U 02058C 08352.04146013 -.00000000 00000-0 22130-4 0 7670 2 27607 064.5576 218.2953 0082947 243.9614 115.2880 14.71402077321875 NO-44 1 26931U 01043C 08352.73065530 .00000078 00000-0 62803-4 0 524 2 26931 067.0499 171.8182 0006169 258.1543 101.8875 14.29542365376643 GO-32 1 25397U 98043D 08352.25997442 .00000039 00000-0 35309-4 0 7747 2 25397 098.3439 018.1903 0002073 074.0824 286.0585 14.23152730542253 IO-26 1 22826U 93061D 08352.71126363 -.00000024 00000-0 69489-5 0 8487 2 22826 098.4055 306.9265 0009831 076.5053 283.7224 14.29504269794089 AO-27 1 22825U 93061C 08352.89923343 .00000000 00000-0 16591-4 0 1311 2 22825 098.4139 306.2792 0009329 079.3224 280.8995 14.29254209794014 LO-19 1 20442U 90005G 08351.96999887 .00000035 00000-0 28384-4 0 4125 2 20442 098.2211 330.8566 0011862 355.0323 005.0756 14.32048450987230 AO-16 1 20439U 90005D 08353.42045320 -.00000030 00000-0 42325-5 0 4890 2 20439 098.2546 324.2950 0011014 353.6971 006.4064 14.31810889987287 NOAA-18 1 28654U 05018A 08353.46744718 .00000342 00000-0 21355-3 0 7074 2 28654 098.8901 292.2946 0014677 150.4602 209.7405 14.11218598184469 NOAA-17 1 27453U 02032A 08353.42642094 .00000173 00000-0 93967-4 0 2259 2 27453 098.5118 052.4984 0010883 292.4658 067.5384 14.24026797337023 NOAA-16 1 26536U 00055A 08353.45095612 -.00000059 00000-0 -65782-5 0 2153 2 26536 099.1720 346.8032 0011211 070.0454 290.1910 14.12505649424788 OKEAN-0 1 25860U 99039A 08353.07171130 -.00000001 00000-0 71381-5 0 5522 2 25860 097.7670 335.6601 0001762 060.6452 299.4930 14.73549342506472 FENGYUN1 1 25730U 99025A 08352.92327621 .00000443 00000-0 28569-3 0 6409 2 25730 098.7418 322.6614 0022928 007.6599 352.4917 14.07903619494816 RESURS 1 25394U 98043A 08353.74288029 -.00000016 00000-0 10887-4 0 971 2 25394 098.3623 029.0632 0002303 035.9694 324.1640 14.24176886542718 NOAA-15 1 25338U 98030A 08353.42751139 .00000141 00000-0 79014-4 0 7407 2 25338 098.5708 340.7494 0009982 221.4663 138.5798 14.24737966551037 NOAA-14 1 23455U 94089A 08353.41697314 .00000017 00000-0 32832-4 0 4381 2 23455 098.9290 065.5926 0009100 347.9339 012.1670 14.13753567720388 OKEAN-4 1 23317U 94066A 08353.50441451 .00000066 00000-0 52111-5 0 7764 2 23317 082.5383 143.0944 0020642 238.5274 121.3918 14.82659447765594 MET-2/21 1 22782U 93055A 08352.52616060 -.00000047 00000-0 -56087-4 0 3286 2 22782 082.5478 326.1218 0023557 133.2916 227.0209 13.83631298772481 MET-3/5 1 21655U 91056A 08353.79845919 .00000051 00000-0 10000-3 0 5302 2 21655 082.5548 333.9466 0012388 274.3729 085.5977 13.17017617833888 NOAA-12 1 21263U 91032A 08353.65651071 .00000048 00000-0 20297-4 0 9478 2 21263 098.7716 355.6446 0011791 313.3111 046.7566 14.25558973914714 NOAA-11 1 19531U 88089A 08353.31481032 .00000071 00000-0 59333-4 0 4410 2 19531 098.7926 080.0274 0010817 264.9938 095.0048 14.14883982 43945 NOAA-10 1 16969U 86073A 08353.51436011 .00000014 00000-0 23898-4 0 4179 2 16969 098.7083 014.9906 0012406 007.9589 352.1793 14.27375870157735 RS-30 1 32953U 08025A 08353.57078489 .00000010 00000-0 00000 0 0 1862 2 32953 082.5025 008.9285 0018337 209.4194 150.5859 12.42998866 25958 CO-66 1 32791U 08021J 08353.19227407 .00000085 00000-0 17822-4 0 2220 2 32791 097.9711 052.3561 0015100 257.6967 102.2554 14.81360365 34619 DO-64 1 32789U 08021G 08352.22281659 .00000507 00000-0 71329-4 0 2400 2 32789 097.9725 051.4639 0014831 263.0691 096.8831 14.81562847 34505 AAUSAT2 1 32788U 08021F 08351.86871699 .00000225 00000-0 35396-4 0 2295 2 32788 097.9689 051.0449 0014176 264.9818 094.9755 14.81630967 34458 COMPASS 1 32787U 08021E 08352.83163847 .00000222 00000-0 35189-4 0 2298 2 32787 097.9690 051.9724 0014722 261.6647 098.2881 14.81516683 34595 CAPE1 1 31130U 07012P 08352.91078084 -.00000051 00000-0 -11404-5 0 4801 2 31130 098.0183 048.3639 0103764 126.2902 234.7937 14.52016635 88380 MAST 1 31126U 07012K 08352.22559953 .00000066 00000-0 25384-4 0 4826 2 31126 098.0181 049.1181 0095624 124.2336 236.7973 14.53465409 88603 FALCON 1 30776U 07006E 08351.77833660 .00000252 00000-0 21351-4 0 4612 2 30776 035.4330 126.0151 0000118 328.6681 031.4028 15.03126089 97631 CO-58 1 28895U 05043F 08353.44617605 .00000005 00000-0 10537-4 0 1926 2 28895 098.0795 242.8911 0017915 189.6511 170.4312 14.59724675167364 ISS 1 25544U 98067A 08352.55733206 .00011020 00000-0 88401-4 0 8762 2 25544 051.6385 156.6387 0007626 100.1805 014.8765 15.71585814577388 PO-34 1 25520U 98064B 08353.17810368 .00000381 00000-0 89465-5 0 1445 2 25520 028.4602 026.9059 0005470 134.3007 225.8033 15.17272542561138 HUBBLE 1 20580U 90037B 08353.79718393 .00000410 00000-0 18865-4 0 2866 2 20580 028.4683 199.1166 0004234 189.7983 170.2492 15.00440514822730 /EX